Regional Weather Roundup
Issued by NWS

Home | Current Version | Previous Version | Graphics & Text | Print | Product List | Glossary On
Versions: 1 2 3 4 5 6 7 8 9 10 11 12 13 14 15 16 17 18 19 20 21 22 23 24 25 26 27 28 29 30 31 32 33 34 35 36 37 38 39 40 41 42 43 44 45 46 47 48 49 50
000
ASUS45 KSLC 060910
RWRUT

UTAH REGIONAL WEATHER ROUNDUP
NATIONAL WEATHER SERVICE SALT LAKE CITY UT
300 AM MDT WED MAY 06 2015

UTZ001>011-023>025-061000-

NORTHERN UTAH

CITY           SKY/WX    TMP DP  RH WIND       PRES   REMARKS
HILL AFB       CLOUDY    52  50  93 SE3       29.83F
LOGAN          CLEAR     50  44  80 CALM      29.80F
OGDEN          CLOUDY    55  48  77 S6        29.81F
PROVO AIRPORT  CLOUDY    52  46  82 NE3       29.85F
SALT LAKE CITY CLOUDY    55  48  77 SE7       29.81F
VERNAL         LGT RAIN  51  48  89 CALM      29.80F
WENDOVER       MOCLDY    54  45  71 E6        29.80F
HEBER CITY     RAIN      46  45  93 CALM      29.86S
WEST JORDAN    PTCLDY    52  50  93 S8        29.83F

$$

UTZ012>022-026-027-061000-

SOUTHERN/CENTRAL UTAH

CITY           SKY/WX    TMP DP  RH WIND       PRES   REMARKS
BLANDING       CLOUDY    48  47  99 CALM      29.95S
BRYCE CANYON   CLOUDY    41  37  86 NW6       29.97F
CEDAR CITY     CLOUDY    48  42  80 SE9       29.90F
DELTA          CLOUDY    50  48  95 SE12      29.86S
HANKSVILLE     CLOUDY    54  50  87 CALM      29.83S
MILFORD        LGT RAIN  50  47  89 S10       29.87F
MOAB/CYNLANDS  CLOUDY    55  53  93 CALM      29.79F
PRICE          MOCLDY    49  40  71 NW8       29.84S
ST GEORGE      CLOUDY    55  48  76 SE7       29.87F
KANAB          MOCLDY    50  46  87 S6        29.95F

$$

REGIONAL REPORTS     COLORADO/ARIZONA

CITY           SKY/WX    TMP DP  RH WIND       PRES   REMARKS
CRAIG, CO      CLOUDY    50  46  86 W14       29.80F
GRAND JUNCTION RAIN      51  51 100 N3        29.80F FOG
RIFLE          LGT RAIN  49  47  93 E3        29.81F
MONTROSE       CLOUDY    50  47  89 E3        29.85F
CORTEZ         LGT RAIN  49  47  93 SW12      29.90S
PAGE, AZ       CLOUDY    58  47  66 SW5       29.88
GRAND CANYON   CLOUDY    43  40  89 SW6       30.00F
KINGMAN        PTCLDY    57  28  33 S10       29.86F
FLAGSTAFF      MOCLDY    38  38 100 CALM      30.03F

$$

REGIONAL REPORTS    NEVADA/IDAHO/WYOMING

CITY           SKY/WX    TMP DP  RH WIND       PRES   REMARKS
LAS VEGAS, NV  MOCLDY    72  35  25 S13       29.72F
ELY            MOCLDY    46  37  71 SW9       29.89F
ELKO           CLEAR     41  30  65 SW6       29.82F
POCATELLO, ID  CLEAR     51  22  31 SW16      29.82S
BURLEY         MOCLDY    48  23  37 SW13      29.82S
EVANSTON, WY   CLOUDY    44  42  93 SW8       29.87F FOG
ROCK SPRINGS   CLOUDY    47  41  80 SW15      29.81F
KEMMERER       CLOUDY    43  41  93 W5        29.86F

$$



USA.gov is the U.S. government's official web portal to all federal, state and local government web resources and services.